Estación Meteorológica de la Universidad de Murcia
Estación Meteorológica de la Universidad de Murcia
Universidad de Murcia
 

Velocidad y dirección del vientoVelocidad y dirección del viento

 

Velocidad: 35,64 km/h a las 17:51:00 del día 19/10/2017
Dirección del viento: 319,3 º NW Rosa de los vientos a las 17:51:00 del día 19/10/2017

Nota:
N (entre 337,6º y 22,5º), NE (entre 22,6º y 67,5º), E (entre 67,6º y 112,5º), SE (entre 112,6º y 157,5º), S (entre 157,6º y 202,5º), SW (entre 202,6º y 247,5º), W (entre 247,5º y 292,5º) y NW (entre 292,6º y 337,5º)

||Velocidad últimos meses|| ----||Dirección del viento||


Velocidad

  • 1 - 35,64 km/h del día 19/10/2017
  • 2 - 18,72 km/h del día 18/10/2017
  • 3 - 20,16 km/h del día 17/10/2017
  • 4 - 25,92 km/h del día 16/10/2017
  • 5 - 27 km/h del día 15/10/2017
  • 6 - 30,24 km/h del día 14/10/2017
  • 7 - 30,24 km/h del día 13/10/2017
  • 8 - 22,32 km/h del día 12/10/2017
  • 9 - 20,16 km/h del día 11/10/2017
  • 10 - 21,96 km/h del día 10/10/2017
  • 11 - 24,48 km/h del día 09/10/2017
  • 12 - 24,12 km/h del día 08/10/2017
  • 13 - 26,64 km/h del día 07/10/2017
  • 14 - 28,08 km/h del día 06/10/2017
  • 15 - 23,4 km/h del día 05/10/2017
  • 16 - 27 km/h del día 04/10/2017
  • 17 - 24,12 km/h del día 03/10/2017
  • 18 - 27,36 km/h del día 02/10/2017
  • 19 - 25,2 km/h del día 01/10/2017
  • 20 - 19,8 km/h del día 30/09/2017
  • 21 - 24,12 km/h del día 29/09/2017
  • 22 - 30,24 km/h del día 28/09/2017
  • 23 - 27,72 km/h del día 27/09/2017
  • 24 - 33,48 km/h del día 26/09/2017
  • 25 - 30,96 km/h del día 25/09/2017
  • 26 - 26,64 km/h del día 24/09/2017
  • 27 - 25,56 km/h del día 23/09/2017
  • 28 - 33,84 km/h del día 22/09/2017
  • 29 - 26,28 km/h del día 21/09/2017
  • 30 - 26,64 km/h del día 20/09/2017
  • 31 - 37,08 km/h del día 19/09/2017
  • 32 - 24,48 km/h del día 18/09/2017
  • 33 - 27,72 km/h del día 17/09/2017
  • 34 - 29,52 km/h del día 16/09/2017
  • 35 - 41,4 km/h del día 15/09/2017
  • 36 - 29,52 km/h del día 14/09/2017
  • 37 - 28,8 km/h del día 13/09/2017
  • 38 - 30,96 km/h del día 12/09/2017
  • 39 - 28,8 km/h del día 11/09/2017
  • 40 - 41,76 km/h del día 10/09/2017
  • 41 - 25,2 km/h del día 09/09/2017
  • 42 - 25,92 km/h del día 08/09/2017
  • 43 - 26,64 km/h del día 07/09/2017
  • 44 - 32,76 km/h del día 06/09/2017
  • 45 - 30,24 km/h del día 05/09/2017
  • 46 - 35,64 km/h del día 04/09/2017
  • 47 - 20,16 km/h del día 03/09/2017
  • 48 - 24,84 km/h del día 02/09/2017
  • 49 - 32,76 km/h del día 01/09/2017
  • 50 - 30,24 km/h del día 31/08/2017
  • 51 - 22,32 km/h del día 30/08/2017
  • 52 - 30,96 km/h del día 29/08/2017
  • 53 - 23,04 km/h del día 28/08/2017
  • 54 - 22,32 km/h del día 27/08/2017
  • 55 - 36,72 km/h del día 26/08/2017
  • 56 - 28,44 km/h del día 25/08/2017
  • 57 - 31,32 km/h del día 24/08/2017
  • 58 - 33,84 km/h del día 23/08/2017
  • 59 - 22,68 km/h del día 22/08/2017
  • 60 - 31,32 km/h del día 21/08/2017

||Volver al inicio de la página||


Dirección del viento

  • 1 - 1626.25 º 1626,25 del día 31/08/2017
  • 2 - 1882.46 º 1882,46 del día 30/09/2017
  • 3 - 1393.85 º 1393,85 del día 30/08/2017
  • 4 - 1587.07 º 1587,07 del día 29/09/2017
  • 5 - 1519.87 º 1519,87 del día 29/08/2017
  • 6 - 1315.17 º 1315,17 del día 28/09/2017
  • 7 - 1611.53 º 1611,53 del día 28/08/2017
  • 8 - 1043.51 º 1043,51 del día 27/09/2017
  • 9 - 1379.61 º 1379,61 del día 27/08/2017
  • 10 - 1575.62 º 1575,62 del día 26/09/2017
  • 11 - 1150.68 º 1150,68 del día 26/08/2017
  • 12 - 2001.73 º 2001,73 del día 25/09/2017
  • 13 - 1201.71 º 1201,71 del día 25/08/2017
  • 14 - 2059.55 º 2059,55 del día 24/09/2017
  • 15 - 1271.45 º 1271,45 del día 24/08/2017
  • 16 - 1466.13 º 1466,13 del día 23/09/2017
  • 17 - 1165.02 º 1165,02 del día 23/08/2017
  • 18 - 1603.68 º 1603,68 del día 22/09/2017
  • 19 - 1609.93 º 1609,93 del día 22/08/2017
  • 20 - 1420.61 º 1420,61 del día 21/09/2017
  • 21 - 1415.14 º 1415,14 del día 21/08/2017
  • 22 - 2508.35 º 2508,35 del día 20/10/2017
  • 23 - 1608.14 º 1608,14 del día 20/09/2017
  • 24 - 1144.24 º 1144,24 del día 20/08/2017
  • 25 - 2260.03 º 2260,03 del día 19/10/2017
  • 26 - 1797.64 º 1797,64 del día 19/09/2017
  • 27 - 1339.08 º 1339,08 del día 18/10/2017
  • 28 - 2125.95 º 2125,95 del día 18/09/2017
  • 29 - 1782.05 º 1782,05 del día 17/10/2017
  • 30 - 1695.24 º 1695,24 del día 17/09/2017
  • 31 - 1572.58 º 1572,58 del día 16/10/2017
  • 32 - 1359.26 º 1359,26 del día 16/09/2017
  • 33 - 1575.57 º 1575,57 del día 15/10/2017
  • 34 - 1006.78 º 1006,78 del día 15/09/2017
  • 35 - 1498.18 º 1498,18 del día 14/10/2017
  • 36 - 1932.29 º 1932,29 del día 14/09/2017
  • 37 - 1522.04 º 1522,04 del día 13/10/2017
  • 38 - 1617.12 º 1617,12 del día 13/09/2017
  • 39 - 1662.13 º 1662,13 del día 12/10/2017
  • 40 - 1511.77 º 1511,77 del día 12/09/2017
  • 41 - 1632.7 º 1632,7 del día 11/10/2017
  • 42 - 2266.22 º 2266,22 del día 11/09/2017
  • 43 - 1603.9 º 1603,9 del día 10/10/2017
  • 44 - 2037.21 º 2037,21 del día 10/09/2017
  • 45 - 1710.74 º 1710,74 del día 09/10/2017
  • 46 - 1869.73 º 1869,73 del día 09/09/2017
  • 47 - 1322.14 º 1322,14 del día 08/10/2017
  • 48 - 1245.17 º 1245,17 del día 08/09/2017
  • 49 - 1663.33 º 1663,33 del día 07/10/2017
  • 50 - 1371.48 º 1371,48 del día 07/09/2017
  • 51 - 1620.39 º 1620,39 del día 06/10/2017
  • 52 - 1576.67 º 1576,67 del día 06/09/2017
  • 53 - 1941.76 º 1941,76 del día 05/10/2017
  • 54 - 1156.89 º 1156,89 del día 05/09/2017
  • 55 - 1220.43 º 1220,43 del día 04/10/2017
  • 56 - 1686.54 º 1686,54 del día 04/09/2017
  • 57 - 1780.07 º 1780,07 del día 03/10/2017
  • 58 - 1702.3 º 1702,3 del día 03/09/2017
  • 59 - 1363.34 º 1363,34 del día 02/10/2017
  • 60 - 958.24 º N del día 02/09/2017
  • 61 - 1266.81 º 1266,81 del día 01/10/2017
  • 62 - 1561.64 º 1561,64 del día 01/09/2017

|| Temperatura Ambiente|| Humedad relativa|| Precipitación|| Radiación Solar Global y PAR|| Temperatura y humedad del suelo|| Presión atmosférica|| Más información|| Volver a la página principal|| Volver al inicio de la página||


Estación Meteorológica de la Universidad de Murcia
http://estacion.um.es/
Informacion actualizada a: 20/10/2017 a las 01:35:00